Kezdőlap
METAR-TAF:

METAR-TAF

Repülőterek :

Nebraska City Municipal Airport

Nebraska City, Nebraska, Amerikai Egyesült Államok

földrajzi szélesség: 40-36N, földrajzi hosszúság: 095-51W, magasság: 354 m

Jelenlegi meteorológiai megfigyelések

A jelentés 14 perccel ezelõtt készült, 23:55 UTC
Dél-délnyugati szél 9 kt
Hőmérséklet 10°C
Páratartalom 50%
Légköri nyomás 1015 hPa
Látótávolság: 16.1 km
Derült ég

METAR: KAFK 222355Z AUTO 21009KT 10SM CLR 10/00 A2998 RMK AO2 T01030001 10138 20095

Idő: 18:09 (00:09 UTC)


TAF: hiányzik

Meteorológiai megfigyelések és előrejelzések több, mint 4000 repülőtéren (METAR és TAF jelentéseket).

A térképen piros és sárga pontok jelzik az elérhető meteorológiai állomásokat.

Mozgassa az egeret a pont fölött, hogy megjelenjen az állomás neve.

Azután kattintson az időjárási megfigyelések és előrejelzések megtekintéséhez.

A térkép megváltoztatása: kattintson a fekete keresztel jelölt zöld gombra ráközelítéshez, a vonallal jelölt zöld gombra távolításhoz, vagy a zöld nyilakra a szomszédos térképek eléréséhez.


METAR-TAF: